Regional Weather Roundup
Issued by NWS Wakefield, VA

Home | Current Version | Previous Version | Graphics & Text | Print | Product List | Glossary On
Versions: 1 2 3 4 5 6 7 8 9 10 11 12 13 14 15 16 17 18 19 20 21 22 23 24 25 26 27
000
ASUS41 KAKQ 171910
RWRAKQ

REGIONAL WEATHER ROUNDUP
NATIONAL WEATHER SERVICE WAKEFIELD VA
300 PM EDT THU APR 17 2014

Note: "fair" indicates few or no clouds below 12,000 feet with no
significant weather and/or obstructions to visibility. * = Denotes
station may not report precipitation (e.g., rain,snow,etc.),
thunder or fog.

VAZ042-051-052>054-056-172000-
NORTHERN VIRGINIA

CITY           SKY/WX    TMP DP  RH WIND       PRES   REMARKS
WASH NATIONAL  PTSUNNY   54  32  43 SE5G18    30.60F
DULLES         MOSUNNY   53  30  41 VRB7      30.58F
FORT BELVOIR   SUNNY     55  31  40 VRB5      30.59F
QUANTICO       MOSUNNY   56  32  40 NE6       30.59F
FREDERICKSBRG* SUNNY     55  32  41 E9        30.57F
STAFFORD*      SUNNY     56  36  46 E13       30.62F
WARRENTON      SUNNY     57  36  45 SE8G16    30.56F
CULPEPER*      SUNNY     57  23  26 SE5       30.57F
MANASSAS*      SUNNY     55  28  35 E5        30.57F
LEESBURG*      SUNNY     54  32  43 S9        30.57F
WINCHESTER     SUNNY     54  27  35 SE10      30.54F
$$

VAZ048-049-060>072-079>083-172000-
CENTRAL AND SOUTH CENTRAL VIRGINIA...AND NORTH CENTRAL NORTH CAROLINA

CITY           SKY/WX    TMP DP  RH WIND       PRES   REMARKS
RICHMOND       CLOUDY    59  32  36 NE13      30.54F
CHESTERFIELD*  NOT AVBL
HANOVER        NOT AVBL
TAPPAHANNOCK*  MOSUNNY   53  29  39 N10       30.58F
CHARLOTTSVILLE SUNNY     55  25  31 E9        30.54F
ORANGE*        SUNNY     55  28  35 NE7       30.56F
LOUISA*        SUNNY     57  30  35 CALM      30.53F
FARMVILLE*     MOSUNNY   61  25  25 E7        30.51F
SOUTH HILL*    MOSUNNY   61  34  36 SE5       30.55F
ROANOKE RAPIDS PTCLDY    61  41  48 E6        30.51F
RALEIGH        PTSUNNY   61  30  31 NE7       30.49F
$$

VAZ088>098-172000-
SOUTHEAST VIRGINIA

CITY           SKY/WX    TMP DP  RH WIND       PRES   REMARKS
NORFOLK        MOSUNNY   49  38  65 NE17G28   30.57S
VIRGINIA BEACH PTSUNNY   50  38  63 NE23G30   30.56S
NORFOLK NAVAL  PTSUNNY   51  38  60 NE21G29   30.58F
WEST POINT*    SUNNY     57  32  38 NE10      30.59S
NEWPORT NEWS   LGT RAIN  56  39  53 E16G22    30.57F
LANGLEY AFB    MOSUNNY   52  40  64 E16       30.58S
FORT EUSTIS    MOSUNNY   55  41  60 VRB6G17   30.55S
WILLIAMSBURG*  MOSUNNY   61  41  48 NE5       30.57F
FRANKLIN*      MOSUNNY   55  41  58 E10G18    30.55S
WAKEFIELD      MOSUNNY   57  37  47 VRB3      30.55S
$$

VAZ020-022-025-037-045-172000-
WESTERN AND SOUTHWEST VIRGINIA

CITY           SKY/WX    TMP DP  RH WIND       PRES   REMARKS
STAUNTON*      SUNNY     53  25  33 CALM      30.53F
HOT SPRINGS VA SUNNY     46  23  39 SE9       30.49F
LYNCHBURG      MOSUNNY   59  23  25 CALM      30.52F
DANVILLE       SUNNY     59  25  27 E7        30.50F
MARTINSVILLE   MOSUNNY   58  24  26 E6        30.51F
ROANOKE        PTSUNNY   53  26  35 E10       30.52F
BLACKSBURG     SUNNY     54  30  40 CALM      30.48F
DUBLIN*        SUNNY     53  24  32 E5        30.46F
MARION*        SUNNY     56  25  30 E7G17     30.44F
HILLSVILLE*    SUNNY     54  16  22 E7        30.47F
RICHLANDS*     CLEAR     63  20  19 E7        30.39F
WISE*          SUNNY     63   9  12 S7        30.38S
ABINGDON*      SUNNY     63  26  23 E6        30.37F
$$

MDZ021>025-VAZ099-100-172000-
SOUTHERN MARYLAND AND THE DELMARVA PENINSULA

CITY           SKY/WX    TMP DP  RH WIND       PRES   REMARKS
PATUXENT RIVER PTSUNNY   50  31  48 E7        30.60F
BAY BRIDGE APT PTSUNNY   52  30  43 E10       30.62F
LEONARDTOWN    SUNNY     52  32  46 E13G18    30.61F
DOVER          SUNNY     48  33  56 E17       30.61F
GEORGETOWN     CLOUDY    48  32  53 E15       30.64F
EASTON         MOSUNNY   54  32  43 E7G18     30.66F
CAMBRIDGE      MOSUNNY   52  32  46 NE8G17    30.61S
SALISBURY      MOSUNNY   51  33  50 E16G23    30.61F
OCEAN CITY     PTSUNNY   47  34  60 NE16G25   30.63F
WALLOPS ISLAND MOSUNNY   50  36  58 E24G30    30.60F
ACCOMACK*      MOSUNNY   50  34  53 E15G21    30.58F
$$

NCZ012>017-030>032-172000-
EASTERN NORTH CAROLINA

CITY           SKY/WX    TMP DP  RH WIND       PRES   REMARKS
ELIZABETH CITY MOSUNNY   55  42  61 NE16G24   30.53F
AHOSKIE*       MOSUNNY   57  40  52 N9        30.52F
EDENTON*       MOSUNNY   56  42  57 NE9       30.52S
CURRITUCK*     MOSUNNY   53  38  56 NE17G24   30.54F
KILL DEVIL HLS MOSUNNY   51  41  69 NE12G26   30.49F
MANTEO         MOSUNNY   52  41  67 NE22G30   30.50F
CAPE HATTERAS  CLOUDY    53  45  74 NE14G29   30.46F
GOLDSBORO      MOSUNNY   61  43  51 NE8       30.46F
WASHINGTON     MOSUNNY   62  44  51 N14G20    30.49F
GREENVILLE     MOSUNNY   61  43  51 E7        30.48F
NEW BERN       MOSUNNY   64  46  52 N13       30.48S
WILMINGTON     MOSUNNY   70  45  40 NE14G20   30.43F
$$

VAZ048-172000-
ELSEWHERE

CITY           SKY/WX    TMP DP  RH WIND       PRES   REMARKS
HARRISBURG PA  PTSUNNY   55  31  39 SE14G21   30.59F
BALTIMORE      PTSUNNY   51  31  46 E10       30.61F
ANNAPOLIS      MOSUNNY   50  32  50 E12       30.62F
ANDREWS AFB    SUNNY     51  31  46 SE12      30.59F
WILMINGTON DE  MOSUNNY   53  29  39 SE10G18   30.64F
PHILADELPHIA   MOSUNNY   53  27  36 E12G22    30.66S
WILDWOOD NJ*   CLOUDY    45  28  53 NE14G21   30.67S
ATLANTIC CITY  CLOUDY    45  31  58 E15       30.66F
HENDERSON NC   SUNNY     59  26  28 NE8       30.50F
GREENSBORO     PTSUNNY   58  25  28 NE10      30.47F
ROCKY MOUNT      N/A    N/A N/A N/A MISG      30.50F
FAYETTEVILLE   SUNNY     64  40  41 NE12G21   30.46F
CHARLOTTE      MOSUNNY   61  27  27 E9G16     30.47F
$$

VAZ100-172000-
MARINE

STATION/POSITION TIME  TEMP    WIND        PRES    WAVE   SWELL
                       AIR SEA DIR/SP/G            HT/PER HT/PER
                 (UTC) (F)     (DEG/KT/KT) (MB)    (FT/S) (FT/S)
44066 TX TWR #4  1900   40 45   50/ 21/ 25 1037.4F  10/ 8
CAPE MAY NJ      1900   44 52   80/ 10/ 15 1037.7F
LEWES DE         1900   43 49   80/ 16/ 18 1037.3S
15NM E FENWICK I 1900   43 45              1036.9F   8/ 8
OCEAN-CITY-INLET 1900   45 45   70/  8/ 17 1036.9F
WACHAPREAGUE VA  1900   47 56   40/ 22/ 26 1035.3F
THOMAS POINT MD  1900   48 53   90/ 10/ 12 1037.2F
GOOSES REEF MD   1900   48      80/  8/ 12 1037.8F
COVE POINT MD    1900   48     130/  8/  9 1036.2F
SOLOMONS ISLAND  1900      52                N/A
BISHOPS HEAD MD  1900   50 56   50/  8/ 13 1035.8F
PINEY POINT MD   1900          110/  9/ 11   N/A
POTOMAC MD       1900   48      80/  8/ 10 1035.6F
CAMBRIDGE MD     1900   48 55   70/ 12/ 16 1036.2S
LEWISETTA VA     1900   47 53   90/ 11/ 13 1035.8F
RAPPAHANNOCK LGT 1900           70/ 14/ 16 1035.6F
STINGRAY PT      1900   48      60/ 14/ 17 1035.5F
YORK RVR RNG VA  1900   49      80/ 14/ 16 1034.6F
YORKTOWN VA      1900   49 55   90/ 14/ 16 1035.2F
JAMESTOWN VA     1900   52      90/  8/ 14   N/A
DOMINION TERM VA 1900   49      80/ 13/ 19 1035.3S
KIPTOPEKE VA     1900      52   60/ 13/ 24   N/A
CHES BAY BRIDGE  1900   45 50   40/ 21/ 26 1034.7S
CAPE HENRY VA    1900   45      40/ 24/ 28   N/A
CHESAPEAKE LGHT  1800   45      40/ 27/ 29 1034.9F
WILLOUBY STN VA  1900   47      60/ 17/ 20 1034.4S
S CRANEY ISL VA  1900           20/ 17/ 22 1035.2S
CAPE HENRY BUOY  1900      47                N/A     7/ 6   2/11
1ST LANDING BUOY 1900      47                N/A     7/11   3/11
64NM E OF VA BCH 1900   51 53   30/ 25/ 29 1032.2F  11/10   5/10
DUCK PIER NC     1900   47 51   30/ 24/ 29 1032.2F
44100 DUCK FRF   1900      47                N/A     9/ 7   2/11
44056 DUCK FRF   1900      50                N/A     8/ 7   2/11
OREGON INLET NC  1900   50 51   10/ 19/ 25 1032.3F
HATTERAS NC      1900   52 55   10/ 27/ 32 1031.4F
CAPE LOOKOUT NC  1800   58      10/ 19/ 24 1031.0F
FRYING PAN SHLS  1900   59 62   50/ 21/ 27 1029.3F   8/ 7
$$



USA.gov is the U.S. government's official web portal to all federal, state and local government web resources and services.